"Pseudo-MPEC" for P115ZhR

Created 2020 Oct 1 23:07:07 UT using Find_Orb

Click here for an explanation of pseudo-MPECs

 
 Astrometry: 
     P115ZhR  C2020 09 11JyMUAstrometryPnl6tyiuvredacted;=7o#Zd/Dxs=G'3mV3=U;F51
     P115ZhR  C2020 09 11L_/j+yd+h_[,PPce:r/ll:Mclickm-)'$8vPQ_t79^v'xWgNa*9UF51
     P115ZhR  C2020 09 14#HI]vP#Y1[Ka1VG+m`CiAAcJam=qJ@ss#5Ihere-l\?M-^'C1gfUF51
     P115ZhR  C2020 09 14cbU2qMOhxIaKPO4Be-foroM3-k;*\p1y2AYDl-N4_QOdX%9F!%SJF51
     P115ZhR  C2020 09 14R@1w5;SL1eKx,+vRlJfQV;;4t/4uexplanationhAyta0qQKJ#65F51

Station data:
(F51) Pan-STARRS 1, Haleakala  (N20.707235 W156.255910)  US/Hawaii.
   Observers N. Primak, A. Schultz, S. Watters, J. Thiel, T. Goggia. Measurer
   PS1 Science Consortium. 1.8-m Ritchey-Chrétien + CCD.

Orbital elements:  P115ZhR
   Perihelion 2020 Jun 13.309444 +/- 47.7 TT =  7:25:36 (JD 2459013.809444)
Epoch 2020 Sep 14.0 TT = JDT 2459106.5   Earth MOID: 0.3757   AutoNEOCP
M  20.13142514 +/- 32               (J2000 ecliptic)
n   0.21718960 +/- 0.248            Peri.  101.82244 +/- 50
a   2.74100625 +/- 2.09             Node   166.35719 +/- 8
e   0.5031328 +/- 0.249             Incl.    7.36683 +/- 2.3
P   4.54                   H 20.3   G  0.15   U 11.8  SR
q 1.36191594 +/- 0.374    Q 4.12009657 +/- 12064
From 5 observations 2020 Sept. 11-14; mean residual 0".08
Residuals in arcseconds: 
200911 F51  .02-  .14+    200914 F51  .14-  .02+    200914 F51  .10+  .04-    
200911 F51  .03+  .14-    200914 F51  .04+  .02+    

Ephemerides (geocentric):
Date (UTC) HH   RA              Dec         delta   r     elong  mag " sig PA
---- -- -- --  -------------   -----------  ------ ------ -----  --- ---- ---
2020 10 01 23  20 43 10.660   -16 23 10.85  1.0215 1.7504 119.9 22.9 2769   4
2020 10 02 00  20 43 14.723   -16 23 13.20  1.0220 1.7507 119.9 22.9 2780   4
2020 10 02 01  20 43 18.786   -16 23 15.53  1.0226 1.7509 119.8 22.9 2791   4
2020 10 02 02  20 43 22.849   -16 23 17.83  1.0231 1.7511 119.8 22.9 2802   4
2020 10 02 03  20 43 26.914   -16 23 20.11  1.0237 1.7514 119.8 22.9 2813   4
2020 10 02 04  20 43 30.979   -16 23 22.36  1.0242 1.7516 119.8 22.9 2824   4
2020 10 02 05  20 43 35.044   -16 23 24.59  1.0248 1.7519 119.7 22.9 2835   4
2020 10 02 06  20 43 39.110   -16 23 26.79  1.0253 1.7521 119.7 22.9 2846   4
2020 10 02 07  20 43 43.177   -16 23 28.96  1.0258 1.7523 119.7 22.9 2857   4
2020 10 02 08  20 43 47.244   -16 23 31.12  1.0264 1.7526 119.7 22.9 2868   4
2020 10 02 09  20 43 51.312   -16 23 33.24  1.0269 1.7528 119.6 22.9 2879   4
2020 10 02 10  20 43 55.380   -16 23 35.35  1.0275 1.7530 119.6 22.9 2890   4
2020 10 02 11  20 43 59.449   -16 23 37.42  1.0280 1.7533 119.6 22.9 2901   4
2020 10 02 12  20 44 03.519   -16 23 39.48  1.0286 1.7535 119.6 22.9 2912   4
2020 10 02 13  20 44 07.589   -16 23 41.50  1.0291 1.7538 119.5 22.9 2923   4
2020 10 02 14  20 44 11.660   -16 23 43.51  1.0297 1.7540 119.5 22.9 2934   4
2020 10 02 15  20 44 15.731   -16 23 45.48  1.0302 1.7542 119.5 22.9 2946   4
2020 10 02 16  20 44 19.803   -16 23 47.44  1.0308 1.7545 119.5 22.9 2957   4
2020 10 02 17  20 44 23.875   -16 23 49.37  1.0313 1.7547 119.4 22.9 2968   4
2020 10 02 18  20 44 27.948   -16 23 51.27  1.0318 1.7549 119.4 22.9 2979   4
2020 10 02 19  20 44 32.022   -16 23 53.15  1.0324 1.7552 119.4 22.9 2991   4
2020 10 02 20  20 44 36.096   -16 23 55.00  1.0329 1.7554 119.4 22.9 3002   4
2020 10 02 21  20 44 40.171   -16 23 56.83  1.0335 1.7557 119.3 22.9 3013   4
2020 10 02 22  20 44 44.246   -16 23 58.64  1.0340 1.7559 119.3 22.9 3024   4
2020 10 02 23  20 44 48.322   -16 24 00.42  1.0346 1.7561 119.3 22.9 3036   4
2020 10 03 00  20 44 52.399   -16 24 02.17  1.0351 1.7564 119.3 22.9 3047   4
2020 10 03 01  20 44 56.476   -16 24 03.90  1.0357 1.7566 119.2 22.9 3058   4
2020 10 03 02  20 45 00.553   -16 24 05.61  1.0362 1.7569 119.2 22.9 3070   4
2020 10 03 03  20 45 04.631   -16 24 07.29  1.0368 1.7571 119.2 22.9 3081   4
2020 10 03 04  20 45 08.710   -16 24 08.95  1.0373 1.7573 119.1 22.9 3093   4
2020 10 03 05  20 45 12.789   -16 24 10.58  1.0379 1.7576 119.1 22.9 3104   4
2020 10 03 06  20 45 16.869   -16 24 12.19  1.0384 1.7578 119.1 22.9 3115   4
2020 10 03 07  20 45 20.950   -16 24 13.77  1.0390 1.7580 119.1 22.9 3127   4
2020 10 03 08  20 45 25.031   -16 24 15.33  1.0395 1.7583 119.0 22.9 3138   4
2020 10 03 09  20 45 29.112   -16 24 16.87  1.0401 1.7585 119.0 22.9 3150   4
2020 10 03 10  20 45 33.194   -16 24 18.38  1.0406 1.7588 119.0 22.9 3161   4
2020 10 03 11  20 45 37.277   -16 24 19.86  1.0412 1.7590 119.0 22.9 3173   4
2020 10 03 12  20 45 41.360   -16 24 21.32  1.0417 1.7592 118.9 22.9 3184   4
2020 10 03 13  20 45 45.444   -16 24 22.76  1.0423 1.7595 118.9 22.9 3196   4
2020 10 03 14  20 45 49.528   -16 24 24.17  1.0428 1.7597 118.9 22.9 3207   4
2020 10 03 15  20 45 53.613   -16 24 25.56  1.0434 1.7600 118.9 22.9 3219   4
2020 10 03 16  20 45 57.699   -16 24 26.92  1.0439 1.7602 118.8 22.9 3230   4
2020 10 03 17  20 46 01.785   -16 24 28.26  1.0445 1.7604 118.8 22.9 3242   3
2020 10 03 18  20 46 05.871   -16 24 29.58  1.0450 1.7607 118.8 22.9 3254   3
2020 10 03 19  20 46 09.958   -16 24 30.87  1.0456 1.7609 118.8 22.9 3265   3
2020 10 03 20  20 46 14.046   -16 24 32.13  1.0461 1.7611 118.7 22.9 3277   3
2020 10 03 21  20 46 18.134   -16 24 33.38  1.0467 1.7614 118.7 22.9 3289   3
2020 10 03 22  20 46 22.223   -16 24 34.59  1.0472 1.7616 118.7 22.9 3300   3